GORIZONT 9 [-]

Last updated on Jan. 25, 2020, 4:43 a.m. UTC

1 14940U 84041A   20024.35499615 -.00000295  00000-0  00000-0 0  9992
2 14940  12.9604 331.8759 0002320 265.9703 109.3947  1.00284867 98520
UTC
Height (km)
Latitude
Longitude
Inclination
Orbital Period
UTC large
Height (km)
Speed (km/s)
/
Latitude / Longitude
Inclination (degrees)
Orbital Period (minutes)
Azimuth
Elevation
Range (km)
Doppler Factor
iOS Compass Heading
iOS Angle

Next 30 passes for location: Hong Kong

Rise time Rise Azimuth (degrees) Set time Set Azimuth (degrees) Duration Max altitude (degrees)

No matching passes for this satellites